• In Hungary
  • List of Countries
  • For 7 days
  • Water Temperature
  • Satellite Maps
  • Weather Map
  • News
  • Weather Widgets
  • user-avatar
    Login

    Hourly Weather Chernigovskiy

    Today, 19 September, Wednesday

    Time Temperature Precipitation Wind Pressure Humidity
    00:00 +13°C° 0.2 mm 3 mps 725 mmHg 80%
    01:00 +12°C° 0.2 mm 3 mps 724 mmHg 86%
    02:00 +12°C° 0.5 mm 3 mps 724 mmHg 87%
    03:00 +12°C° 0.5 mm 4 mps 724 mmHg 89%
    04:00 +11°C° 0.5 mm 4 mps 724 mmHg 90%
    05:00 +11°C° 1 mm 4 mps 724 mmHg 90%
    06:00 +10°C° 1 mm 5 mps 724 mmHg 90%
    07:00 +10°C° 1 mm 5 mps 724 mmHg 90%
    08:00 +10°C° 0.4 mm 6 mps 724 mmHg 89%
    09:00 +10°C° 0.4 mm 6 mps 724 mmHg 89%
    10:00 +11°C° 0.4 mm 6 mps 724 mmHg 88%
    11:00 +11°C° 0.4 mm 6 mps 724 mmHg 83%
    12:00 +11°C° 0.4 mm 6 mps 725 mmHg 79%
    13:00 +11°C° 0.4 mm 6 mps 725 mmHg 74%
    14:00 +12°C° 0.3 mm 5 mps 725 mmHg 76%
    15:00 +12°C° 0.3 mm 5 mps 726 mmHg 77%
    16:00 +10°C° 0.3 mm 5 mps 726 mmHg 79%
    17:00 +10°C° 0.1 mm 4 mps 726 mmHg 81%
    18:00 +10°C° 0.1 mm 4 mps 726 mmHg 83%
    19:00 +9°C° 0.1 mm 3 mps 726 mmHg 85%
    20:00 +8°C° 0.1 mm 3 mps 726 mmHg 88%
    21:00 +7°C° 0.1 mm 3 mps 726 mmHg 90%
    22:00 +7°C° 0.1 mm 3 mps 726 mmHg 92%
    23:00 +7°C° 0 mm 2 mps 726 mmHg 93%

    Tomorrow, 20 September, Thursday

    Time Temperature Precipitation Wind Pressure Humidity
    00:00 +7°C° 0 mm 2 mps 726 mmHg 93%
    01:00 +7°C° 0 mm 2 mps 726 mmHg 94%
    02:00 +7°C° 0.1 mm 2 mps 727 mmHg 94%
    03:00 +7°C° 0.1 mm 2 mps 727 mmHg 94%
    04:00 +7°C° 0.1 mm 2 mps 727 mmHg 94%
    05:00 +7°C° 0 mm 2 mps 727 mmHg 94%
    06:00 +8°C° 0 mm 3 mps 727 mmHg 93%
    07:00 +8°C° 0 mm 3 mps 727 mmHg 93%
    08:00 +8°C° 0.1 mm 3 mps 727 mmHg 92%
    09:00 +7°C° 0.1 mm 4 mps 728 mmHg 90%
    10:00 +8°C° 0.1 mm 4 mps 728 mmHg 88%
    11:00 +8°C° 0.1 mm 4 mps 728 mmHg 87%
    12:00 +8°C° 0.1 mm 4 mps 728 mmHg 85%
    13:00 +8°C° 0.1 mm 4 mps 729 mmHg 83%
    14:00 +8°C° 0 mm 4 mps 729 mmHg 83%
    15:00 +8°C° 0 mm 4 mps 729 mmHg 82%
    16:00 +8°C° 0 mm 4 mps 729 mmHg 81%
    17:00 +8°C° 0 mm 4 mps 730 mmHg 83%
    18:00 +8°C° 0 mm 3 mps 730 mmHg 85%
    19:00 +8°C° 0 mm 3 mps 730 mmHg 87%
    20:00 +7°C° 0 mm 3 mps 730 mmHg 88%
    21:00 +7°C° 0 mm 2 mps 730 mmHg 90%
    22:00 +6°C° 0 mm 2 mps 730 mmHg 92%
    23:00 +6°C° 0 mm 2 mps 730 mmHg 92%

    Day after tomorrow, 21 September, Friday

    Time Temperature Precipitation Wind Pressure Humidity
    00:00 +5°C° 0 mm 2 mps 730 mmHg 92%
    01:00 +4°C° 0 mm 3 mps 730 mmHg 92%
    02:00 +4°C° 0 mm 3 mps 730 mmHg 92%
    03:00 +4°C° 0 mm 3 mps 730 mmHg 92%
    04:00 +4°C° 0 mm 3 mps 730 mmHg 93%
    05:00 +4°C° 0 mm 3 mps 731 mmHg 92%
    06:00 +4°C° 0 mm 3 mps 731 mmHg 91%
    07:00 +4°C° 0 mm 3 mps 731 mmHg 90%
    08:00 +6°C° 0 mm 4 mps 732 mmHg 84%
    09:00 +7°C° 0 mm 5 mps 732 mmHg 77%
    10:00 +9°C° 0 mm 6 mps 732 mmHg 71%
    11:00 +10°C° 0 mm 6 mps 732 mmHg 66%
    12:00 +11°C° 0 mm 6 mps 733 mmHg 62%
    13:00 +13°C° 0 mm 6 mps 733 mmHg 58%
    14:00 +13°C° 0 mm 6 mps 733 mmHg 57%
    15:00 +13°C° 0 mm 6 mps 733 mmHg 57%
    16:00 +13°C° 0 mm 6 mps 734 mmHg 56%
    17:00 +12°C° 0 mm 5 mps 734 mmHg 63%
    18:00 +10°C° 0 mm 4 mps 734 mmHg 70%
    19:00 +9°C° 0 mm 3 mps 735 mmHg 77%
    20:00 +8°C° 0 mm 3 mps 735 mmHg 80%
    21:00 +8°C° 0 mm 2 mps 735 mmHg 84%
    22:00 +7°C° 0 mm 2 mps 736 mmHg 87%
    23:00 +7°C° 0 mm 2 mps 736 mmHg 88%

    22 September, Saturday

    Time Temperature Precipitation Wind Pressure Humidity
    00:00 +6°C° 0 mm 2 mps 736 mmHg 89%
    01:00 +6°C° 0 mm 2 mps 736 mmHg 90%
    02:00 +6°C° 0 mm 2 mps 736 mmHg 91%
    03:00 +5°C° 0 mm 2 mps 737 mmHg 91%
    04:00 +5°C° 0 mm 2 mps 737 mmHg 92%
    05:00 +5°C° 0 mm 2 mps 737 mmHg 91%
    06:00 +5°C° 0 mm 2 mps 738 mmHg 91%
    07:00 +6°C° 0 mm 2 mps 739 mmHg 90%
    08:00 +8°C° 0 mm 2 mps 739 mmHg 82%
    09:00 +10°C° 0 mm 3 mps 739 mmHg 73%
    10:00 +12°C° 0 mm 3 mps 739 mmHg 65%
    11:00 +13°C° 0 mm 3 mps 739 mmHg 60%
    12:00 +14°C° 0 mm 4 mps 739 mmHg 55%
    13:00 +17°C° 0 mm 4 mps 739 mmHg 49%
    14:00 +17°C° 0 mm 4 mps 739 mmHg 51%
    15:00 +17°C° 0 mm 4 mps 739 mmHg 53%
    16:00 +17°C° 0 mm 4 mps 739 mmHg 55%
    17:00 +14°C° 0 mm 3 mps 739 mmHg 64%
    18:00 +14°C° 0 mm 2 mps 739 mmHg 73%
    19:00 +13°C° 0 mm 2 mps 739 mmHg 82%
    20:00 +12°C° 0 mm 2 mps 740 mmHg 85%
    21:00 +12°C° 0 mm 1 mps 740 mmHg 89%
    22:00 +12°C° 0 mm 1 mps 740 mmHg 92%
    23:00 +11°C° 0 mm 1 mps 740 mmHg 92%

    23 September, Sunday

    Time Temperature Precipitation Wind Pressure Humidity
    00:00 +11°C° 0 mm 1 mps 740 mmHg 93%
    01:00 +11°C° 0 mm 1 mps 739 mmHg 94%
    02:00 +11°C° 0 mm 1 mps 739 mmHg 94%
    03:00 +12°C° 0 mm 1 mps 740 mmHg 95%
    04:00 +12°C° 0 mm 2 mps 740 mmHg 95%
    05:00 +12°C° 0.1 mm 2 mps 740 mmHg 96%
    06:00 +13°C° 0.1 mm 1 mps 740 mmHg 96%
    07:00 +13°C° 0.1 mm 1 mps 740 mmHg 96%
    08:00 +14°C° 0 mm 2 mps 740 mmHg 92%
    09:00 +15°C° 0 mm 2 mps 740 mmHg 88%
    10:00 +16°C° 0 mm 2 mps 740 mmHg 85%
    11:00 +17°C° 0 mm 3 mps 739 mmHg 78%
    12:00 +18°C° 0 mm 3 mps 739 mmHg 72%
    13:00 +20°C° 0 mm 3 mps 739 mmHg 65%
    14:00 +20°C° 0 mm 3 mps 739 mmHg 64%
    15:00 +20°C° 0 mm 3 mps 739 mmHg 63%
    16:00 +20°C° 0 mm 3 mps 739 mmHg 62%
    17:00 +19°C° 0 mm 2 mps 739 mmHg 69%
    18:00 +17°C° 0 mm 2 mps 739 mmHg 75%
    19:00 +15°C° 0 mm 1 mps 739 mmHg 82%
    20:00 +15°C° 0 mm 1 mps 739 mmHg 83%
    21:00 +13°C° 0 mm 0 mps 739 mmHg 84%
    22:00 +13°C° 0 mm 0 mps 739 mmHg 85%
    23:00 +12°C° 0 mm 0 mps 739 mmHg 86%

    24 September, Monday

    Time Temperature Precipitation Wind Pressure Humidity
    00:00 +12°C° 0 mm 0 mps 739 mmHg 86%
    01:00 +12°C° 0 mm 0 mps 739 mmHg 87%
    02:00 +11°C° 0 mm 0 mps 739 mmHg 87%
    03:00 +11°C° 0 mm 0 mps 739 mmHg 87%
    04:00 +11°C° 0 mm 0 mps 739 mmHg 88%
    05:00 +11°C° 0 mm 0 mps 739 mmHg 88%
    06:00 +11°C° 0 mm 0 mps 739 mmHg 88%
    07:00 +11°C° 0 mm 0 mps 739 mmHg 87%
    08:00 +15°C° 0 mm 1 mps 739 mmHg 80%
    09:00 +18°C° 0 mm 1 mps 739 mmHg 72%
    10:00 +20°C° 0 mm 1 mps 739 mmHg 65%
    11:00 +20°C° 0 mm 2 mps 739 mmHg 61%
    12:00 +21°C° 0 mm 2 mps 739 mmHg 57%
    13:00 +23°C° 0 mm 2 mps 739 mmHg 53%
    14:00 +23°C° 0 mm 2 mps 739 mmHg 52%
    15:00 +23°C° 0 mm 2 mps 739 mmHg 52%
    16:00 +23°C° 0 mm 2 mps 739 mmHg 52%
    17:00 +20°C° 0 mm 2 mps 739 mmHg 59%
    18:00 +19°C° 0 mm 1 mps 739 mmHg 67%
    19:00 +15°C° 0 mm 0 mps 739 mmHg 74%
    20:00 +15°C° 0 mm 0 mps 739 mmHg 76%
    21:00 +14°C° 0 mm 0 mps 739 mmHg 77%
    22:00 +14°C° 0 mm 0 mps 739 mmHg 79%
    23:00 +13°C° 0 mm 0 mps 739 mmHg 80%
    Show more